Weather History for KVNY - April, 2013

Change the Weather History Date:

Friday, April 19, 2013

  Actual Average Record
Temperature  
Mean Temperature 69 °F -  
Max Temperature 88 °F 73 °F 93 °F (2009)
Min Temperature 52 °F 49 °F 46 °F (2003)
Cooling Degree Days 4    
Growing Degree Days 19 (Base 50)    
Moisture  
Dew Point 19 °F    
Average Humidity 17    
Maximum Humidity 40    
Minimum Humidity 6    
Precipitation  
Precipitation 0.00 in - - ()
Sea Level Pressure  
Sea Level Pressure 30.06 in    
Wind  
Wind Speed 2 mph (WNW)    
Max Wind Speed 10 mph    
Max Gust Speed 17 mph    
Visibility 10 miles    
Events      
Averages and records for this station are not official NWS values.
T = Trace of Precipitation, MM = Missing Value Source: NWS Daily Summary

Daily Weather History Graph

Daily Weather History Graph

Search for Another Location

Airport or City:

Trip Planner

Search our weather history database for the weather conditions in past years. The results will help you decide how hot, cold, wet, or windy it might be!

Date:

Astronomy

Apr. 19, 2013 Rise Set
Actual Time 6:17 AM PDT 7:28 PM PDT
Civil Twilight 5:51 AM PDT 7:55 PM PDT
Nautical Twilight 5:20 AM PDT 8:26 PM PDT
Astronomical Twilight 4:48 AM PDT 8:58 PM PDT
Moon 1:33 PM PDT (4/19) 2:19 AM PDT (4/19)
Length of Visible Light 14h 03m
Length of Day
13h 11m
Waxing Gibbous, 62% of the Moon is Illuminated
Apr 19
Waxing Gibbous
Apr 25
Full
May 2
Last Quarter
May 9
New
May 17
First Quarter

Hourly Weather History & Observations

Time (PDT) Temp. Dew Point Humidity Pressure Visibility Wind Dir Wind Speed Gust Speed Precip Events Conditions
12:51 AM 59.0 °F 21.9 °F 24% 30.13 in 10.0 mi Calm Calm - N/A   Clear
1:51 AM 57.9 °F 19.9 °F 23% 30.12 in 10.0 mi Calm Calm - N/A   Clear
2:51 AM 62.1 °F 16.0 °F 17% 30.11 in 10.0 mi NW 5.8 mph - N/A   Clear
3:51 AM 57.0 °F 19.0 °F 23% 30.12 in 10.0 mi Calm Calm - N/A   Clear
4:51 AM 54.0 °F 23.0 °F 30% 30.12 in 10.0 mi Calm Calm - N/A   Clear
5:51 AM 52.0 °F 28.0 °F 40% 30.12 in 10.0 mi Calm Calm - N/A   Clear
6:51 AM 53.1 °F 23.0 °F 31% 30.14 in 10.0 mi South 6.9 mph - N/A   Clear
7:51 AM 59.0 °F 26.1 °F 28% 30.16 in 10.0 mi Calm Calm - N/A   Clear
8:51 AM 66.9 °F 21.0 °F 17% 30.16 in 10.0 mi Calm Calm - N/A   Clear
9:51 AM 73.9 °F 17.1 °F 12% 30.15 in 10.0 mi Calm Calm - N/A   Clear
10:51 AM 77.0 °F 7.0 °F 7% 30.14 in 10.0 mi Calm Calm - N/A   Clear
11:51 AM 81.0 °F 7.0 °F 6% 30.11 in 10.0 mi Calm Calm - N/A   Clear
12:51 PM 82.0 °F 10.9 °F 7% 30.07 in 10.0 mi Variable 3.5 mph - N/A   Clear
1:51 PM 84.9 °F 10.9 °F 6% 30.04 in 10.0 mi Variable 5.8 mph - N/A   Clear
2:51 PM 86.0 °F 10.0 °F 6% 30.00 in 10.0 mi SW 4.6 mph - N/A   Clear
3:51 PM 84.9 °F 15.1 °F 7% 29.97 in 10.0 mi West 10.4 mph 17.3 mph N/A   Clear
4:51 PM 82.9 °F 12.9 °F 7% 29.97 in 10.0 mi WNW 10.4 mph 17.3 mph N/A   Clear
5:51 PM 81.0 °F 16.0 °F 9% 29.96 in 10.0 mi WNW 8.1 mph - N/A   Clear
6:51 PM 78.1 °F 15.1 °F 9% 29.96 in 10.0 mi WNW 10.4 mph 17.3 mph N/A   Clear
7:51 PM 75.0 °F 19.0 °F 12% 29.97 in 10.0 mi WNW 5.8 mph - N/A   Clear
8:51 PM 72.0 °F 26.1 °F 18% 29.97 in 10.0 mi West 3.5 mph - N/A   Clear
9:51 PM 70.0 °F 28.9 °F 22% 29.97 in 10.0 mi WNW 3.5 mph - N/A   Clear
10:51 PM 66.9 °F 30.0 °F 25% 29.97 in 10.0 mi Calm Calm - N/A   Clear
11:51 PM 64.9 °F 32.0 °F 29% 29.97 in 10.0 mi Calm Calm - N/A   Clear